Showing default

S-NET D, 43186

Orbit data source: Space-Track

S-NET D, 43186 is a payload satellite owned by TUB (DE) in SSO that was launched on Thu, 01 Feb 2018 UTC via a SOYUZ-2-1A launch vehicle from the Vostochny Cosmodrome (VOSTO). Payload-class satellites include a variety of spacecraft equipped with specific instruments for various scientific and technological missions. These include communications satellites like Starlink; space stations such as the ISS; scientific satellites like the Hubble; Earth observation satellites from companies like Planet Labs, Umbra, and HawkEye 360; GPS; miniature CubeSats for education and research; and military/defense satellites.

Loading next visibility...
Identifier
43186, 2018-014G
Orbit
SSO
Country
Flag of DEDE / GER
Related business
Manufacturer
TUB
Mission
Operational Amateur Com/Tech
Bus & Motor
TUBIX10, Unknown motor
Mass
8 kg wet, 8 kg dry
Launch date (UTC)
2018-02-01 (8 years ago)
Launch vehicle
SOYUZ-2-1A
Launch site
Vostochny Cosmodrome (VOSTO)
Object type
Payload
Rocket body
Debris
Shape & HBR
Box, 1.0 m
Radar Cross Section
0.086 m², Medium (>0.1 m² and < 1m²)

Expand to show TLE details & history
Last TLE update: 13 hours ago

TLE from 13 hours ago
0 S-NET D
1 43186U 18014G   26074.28611800  .00007508  00000-0  39725-3 0  9990
2 43186  97.5435 339.6940 0008210 356.2189   3.8980 15.15709108444531
Epoch: 2026-03-15T06:52Z
TLE epoch observation values (Epoch: 2026-03-15T06:52:00.595Z)
Latitude
-0°
Longitude
63.79639°
Altitude
516.257 km
Speed
7.609 km/s
True Right ascension
22h 38m 46s
True Declination
0° 00' 00"
Sunlit
Object was in daylight at epoch
Visualization orbit readout
Latitude
Unknown
Longitude
Unknown
Altitude
Unknown
Speed
Unknown
Apparent Right ascension
Unknown
Apparent Declination
Unknown
Sunlit
N/A
Visualization observer readout
Local Sidereal Time
00:54:41
Azimuth
Unknown
Elevation
Unknown
Doppler factor
Unknown
Orbital elements
Apogee altitude
521.464 km
Perigee altitude
510.144 km
Semi-major axis
6,893.941 km
Eccentricity
0.00082
Inclination
97.5435°
RAAN
339.694°
Arg. of periapsis
356.2189°
True anomaly
3.9044°
Mean anomaly
3.898°
Eccentric anomaly
3.9012°
Mean motion
3.79177 °/min
Orbital period
94.94 mins
BSTAR
0.00039725
Loading maneuver chart data...
Computing Atmospheric mass density...
Loading historical data...
Loading historical data...
Loading historical data...
Loading historical data...
Loading historical data...
Loading historical data...
Loading historical data...

Documentation

Showing up to 5 results
|